This demonstration page uses our WeatherBlox Daily Observations layout. Learn more.

Left ArrowRight Arrow

34.74481, -87.66753

Hourly Observations for December 13, 2020

Temp ( °F °C ) Dew Point ( °F °C ) Humidity (%) Winds ( mph kmh ) Pressure ( in mb ) Visibility ( mi km ) Precip ( " mm )
12:53 am 00:53 Clear 45 7.2 38 3.3 77 77 N 3 6 30.08 1019 10 16 0.00 0.00
1:53 am 01:53 Clear 44 6.7 38 3.3 79 79 N 3 6 30.09 1019 10 16 0.00 0.00
2:53 am 02:53 Clear 40 4.4 36 2.2 86 86 Calm 30.10 1019 9 14 0.00 0.00
3:53 am 03:53 Clear with Mist and Fog 38 3.3 34 1.1 86 86 Calm 30.10 1019 6 10 0.00 0.00
4:53 am 04:53 Clear with Mist and Fog 38 3.3 35 1.7 89 89 Calm 30.13 1020 5 8 0.00 0.00
5:28 am 05:28 Clear with Mist and Fog 38 3.3 34 1.1 86 86 Calm 30.15 1021 2 2 0.00 0.00
5:50 am 05:50 Clear with Fog 37 3 34 1 87 87 Calm 30.16 1021 1 1 0.00 0.00
5:53 am 05:53 Clear with Fog 37 2.8 34 1.1 89 89 Calm 30.13 1020 1 1 0.00 0.00
6:15 am 06:15 Mostly Cloudy with Fog 35 1.7 32 0 89 89 Calm 30.16 1021 1 1 0.00 0.00
6:22 am 06:22 Clear with Mist and Fog 35 1.7 32 0 89 89 Calm 30.17 1022 1 2 0.00 0.00
6:33 am 06:33 Clear with Mist and Fog 36 2.2 33 0.6 89 89 Calm 30.15 1021 3 5 0.00 0.00
6:53 am 06:53 Sunny with Mist and Fog 35 1.7 32 0 89 89 Calm 30.13 1020 3 5 0.00 0.00
7:53 am 07:53 Sunny with Mist and Fog 38 3.3 34 1.1 86 86 Calm 30.15 1021 3 5 0.00 0.00
8:53 am 08:53 Sunny 44 6.7 38 3.3 79 79 ENE 7 11 30.15 1021 8 13 0.00 0.00
9:53 am 09:53 Sunny 48 8.9 40 4.4 74 74 Calm 30.18 1022 9 14 0.00 0.00
10:53 am 10:53 Sunny 51 10.6 41 5 69 69 VRB 3 6 30.14 1021 10 16 0.00 0.00
11:53 am 11:53 Sunny 53 11.7 42 5.6 66 66 SE 3 6 30.08 1019 10 16 0.00 0.00
12:53 pm 12:53 Sunny 56 13.3 42 5.6 60 60 ESE 3 6 30.04 1017 10 16 0.00 0.00
1:53 pm 13:53 Sunny 58 14.4 43 6.1 58 58 NE 5 7 30.01 1016 10 16 0.00 0.00
2:53 pm 14:53 Mostly Sunny 57 13.9 43 6.1 60 60 NNE 7 11 30.00 1016 10 16 0.00 0.00
3:53 pm 15:53 Mostly Sunny 56 13.3 42 5.6 60 60 NNE 5 7 29.99 1016 10 16 0.00 0.00
4:53 pm 16:53 Mostly Cloudy 55 12.8 41 5 59 59 Calm 29.99 1016 10 16 0.00 0.00
5:53 pm 17:53 Cloudy 56 13.3 40 4.4 55 55 NNE 10 17 29.99 1016 10 16 0.00 0.00
6:53 pm 18:53 Cloudy with Light Rain 51 10.6 42 5.6 71 71 NNE 12 19 29.99 1016 9 14 0.01 0.25
7:53 pm 19:53 Cloudy with Light Rain 50 10 42 5.6 74 74 NE 14 22 29.95 1014 9 14 0.03 0.76
8:53 pm 20:53 Cloudy with Heavy Rain 47 8.3 43 6.1 86 86 NNE 12 19 29.96 1014 3 5 0.24 6.10
9:11 pm 21:11 Cloudy with Heavy Rain 47 8.3 43 6.1 86 86 NNE 17 28 29.98 1015 3 4 0.07 1.78
9:21 pm 21:21 Cloudy with Heavy Rain 46 7.8 42 5.6 86 86 NNE 17 28 29.97 1015 2 3 0.13 3.30
9:27 pm 21:27 Cloudy with Heavy Rain 46 7.8 42 5.6 86 86 NNE 16 26 29.98 1015 2 3 0.16 4.06
9:39 pm 21:39 Cloudy with Heavy Rain 46 7.8 42 5.6 86 86 NE 12 19 29.96 1015 3 5 0.20 5.08
9:51 pm 21:51 Cloudy with Heavy Rain 46 8 41 5 82 82 NNE 15 24 29.93 1014 3 5 0.24 6.10
9:53 pm 21:53 Cloudy with Rain 46 7.8 41 5 83 83 NNE 16 26 29.92 1013 3 5 0.24 6.10
10:44 pm 22:44 Cloudy with Heavy Rain 45 7.2 41 5 86 86 NNE 15 24 29.92 1013 3 4 0.17 4.32
10:53 pm 22:53 Cloudy with Heavy Rain 45 7.2 40 4.4 83 83 NE 14 22 29.90 1013 3 5 0.21 5.33
11:01 pm 23:01 Cloudy with Heavy Rain 45 7.2 40 4.4 83 83 NE 20 31 29.89 1012 3 4 0.04 1.02
11:10 pm 23:10 Cloudy with Rain 45 7.2 40 4.4 83 83 NNE 17 28 29.91 1013 3 5 0.06 1.52
11:27 pm 23:27 Cloudy with Heavy Rain 44 6.7 40 4.4 85 85 N 14 22 29.92 1013 3 4 0.14 3.56
11:51 pm 23:51 Cloudy with Rain 45 7 39 4 81 81 NNE 9 15 29.93 1014 3 5 0.22 5.59
11:53 pm 23:53 Cloudy with Rain 44 6.7 40 4.4 85 85 NNE 9 15 29.91 1013 3 5 0.23 5.84

Powered by AerisWeather